Theta_e
304 303 304 305 306 305 303 301 301 299 297 296 296 296 296 295 295 295 294 294 293 293 293 292 293 292 291 291 292 292 292 292
302 303 304 304 306 304 302 301 299 297 296 295 295 295 295 294 294 294 293 293 292 292 292 292 290 290 290 291 291 291 291 291
303 304 305 306 305 303 302 300 298 296 295 295 295 295 295 294 294 293 292 291 291 291 290 289 289 290 289 290 290 290 290 290
304 305 305 306 305 303 301 299 297 296 295 295 294 294 294 293 293 292 292 291 291 291 290 289 289 288 289 289 289 289 289 288
304 304 305 306 305 304 301 299 296 295 295 294 294 294 294 293 293 292 292 292 291 291 291 289 289 289 289 288 288 288 288 288
304 305 307 305 304 303 300 298 296 295 295 294 294 294 293 293 293 292 292 292 292 291 291 289 289 288 288 288 288 287 287 287
305 307 306 305 304 302 299 296 295 295 294 294 294 294 293 293 293 292 292 292 292 290 290 289 289 288 288 288 287 287 287 287
305 307 306 305 302 301 298 296 295 294 294 294 294 294 294 293 293 292 292 292 291 291 289 289 288 288 288 287 287 287 287 285
308 307 306 305 302 300 298 296 295 294 294 294 294 293 293 293 292 292 291 291 290 289 288 288 288 288 288 287 287 286 284 284
308 307 306 303 301 298 296 296 294 294 294 293 294 293 293 292 292 291 291 290 289 288 288 288 289 288 288 287 287 285 284 283
308 306 305 303 299 297 296 295 294 293 293 294 292 292 292 292 291 291 290 289 289 289 288 288 288 288 288 287 285 284 283 283
307 306 304 299 297 296 295 294 293 293 293 293 291 291 291 291 290 290 290 289 289 289 288 288 287 288 287 286 285 284 283 282
307 305 303 298 296 295 294 293 293 293 292 292 291 291 291 290 290 290 289 289 289 288 288 287 287 287 286 285 284 283 282 283
304 303 298 296 295 294 294 293 292 292 292 291 291 291 291 290 290 289 289 288 288 288 288 287 287 287 285 284 283 282 281 283
303 301 297 296 294 294 293 293 292 292 291 291 291 290 290 290 290 289 289 289 289 288 287 288 288 286 284 283 282 281 282 283
304 297 296 295 294 294 293 292 292 291 291 291 290 289 290 290 289 289 288 288 288 287 287 288 285 285 283 282 281 281 281 282
299 297 295 294 294 294 293 292 292 291 291 290 290 289 289 289 289 288 288 288 287 286 285 286 284 284 284 282 281 280 280 281
297 296 295 294 294 293 292 292 292 291 291 290 289 289 289 288 288 287 287 287 285 284 284 284 283 282 282 281 281 280 280 280
296 295 294 294 294 292 292 292 291 291 290 290 289 289 288 288 287 285 284 284 284 283 283 282 281 281 281 281 281 280 280 280
Wind_Speed
9 12 11 9 7 12 12 14 15 15 21 17 15 17 16 13 15 15 17 20 18 20 19 22 20 21 25 27 27 27 26 27
7 6 5 2 12 13 16 16 16 17 21 20 18 21 18 18 18 18 24 21 21 19 19 18 22 26 25 25 29 27 25 26
7 7 7 5 15 14 14 15 15 16 16 18 18 19 19 20 18 22 22 22 21 19 18 23 28 25 26 26 26 26 24 26
8 8 6 16 14 14 13 13 13 14 15 15 17 17 18 21 21 24 21 23 22 21 23 27 27 25 24 25 25 26 23 28
7 8 7 18 15 11 10 11 11 13 13 14 15 15 19 19 19 22 22 22 23 23 26 25 25 23 23 25 24 24 25 22
8 9 11 20 14 9 8 10 11 12 12 14 15 15 17 19 20 23 23 20 22 22 22 27 24 22 23 24 23 24 26 28
9 6 24 18 16 15 12 11 12 12 13 14 14 16 17 19 21 24 23 23 21 28 22 26 23 23 24 21 22 26 25 22
6 13 19 17 14 11 12 10 13 13 14 14 13 16 17 17 19 22 22 23 26 23 27 25 24 25 23 22 22 23 18 23
6 17 16 12 14 13 11 11 13 14 13 13 13 16 18 18 21 20 22 24 24 26 26 25 26 27 23 24 21 13 21 25
10 17 15 15 15 13 11 12 12 13 12 13 12 17 19 20 20 21 23 24 25 26 25 26 27 25 25 28 16 21 28 33
12 17 12 13 16 14 13 12 13 12 11 13 16 19 19 19 21 22 23 24 26 26 28 27 27 27 28 16 20 30 33 31
14 14 14 18 16 15 14 13 13 13 14 13 18 20 20 18 22 23 22 25 26 27 28 27 29 27 23 21 28 30 33 28
16 19 18 17 16 14 14 12 12 13 15 15 18 20 19 21 23 22 25 27 26 28 29 30 29 30 20 24 32 32 32 30
14 17 20 17 14 13 13 12 12 13 15 16 18 21 18 23 23 24 27 27 28 29 30 32 29 27 23 32 31 33 33 29
9 14 17 15 14 12 11 11 12 14 15 16 19 21 21 23 23 26 29 29 31 31 31 33 29 22 27 31 32 35 32 27
9 10 16 15 13 11 10 10 12 15 16 18 20 20 22 24 26 28 29 30 30 31 34 32 32 20 27 37 39 32 30 29
13 16 17 14 11 11 10 12 14 15 16 18 20 20 23 25 27 29 30 31 33 33 35 31 33 25 35 39 41 32 32 30
13 15 18 14 11 10 14 15 14 15 16 18 20 20 23 25 27 29 32 33 35 35 36 34 33 30 37 43 47 39 35 33
17 19 18 15 11 14 15 14 15 15 16 18 19 20 22 25 28 29 31 32 34 33 34 35 35 36 40 44 45 39 31 35
Wind_Direction
106 115 121 115 87 95 75 54 35 21 29 23 18 10 6 29 21 27 15 360 357 351 349 342 346 348 344 337 338 338 334 331
139 145 169 199 99 82 71 55 45 26 26 23 15 10 24 25 21 14 6 5 356 357 357 5 353 349 346 341 337 341 344 341
191 213 172 132 92 78 67 62 46 33 22 19 15 13 16 14 10 5 3 3 2 3 360 355 353 352 345 344 348 348 340 344
185 197 190 124 93 77 78 70 53 37 26 17 16 10 11 7 7 7 4 358 4 358 355 355 354 347 345 345 343 342 337 334
199 205 219 117 102 79 89 74 56 38 25 21 21 15 359 6 3 3 356 357 357 350 349 351 350 347 343 340 338 338 335 326
218 221 136 106 95 82 82 79 56 41 35 24 20 13 4 3 3 358 351 352 351 348 343 349 348 344 340 339 338 336 332 327
222 202 112 101 87 72 72 72 64 49 34 23 21 9 4 359 355 349 350 351 351 348 347 347 345 342 339 338 334 333 333 335
225 130 111 106 89 73 47 62 64 45 33 19 17 8 358 354 353 351 354 353 350 351 346 346 344 339 334 331 329 331 339 336
167 123 122 109 105 87 62 53 54 39 27 15 12 9 2 0 356 358 357 353 352 348 347 345 341 339 337 336 329 328 333 330
133 110 100 108 104 93 76 54 49 33 15 11 16 14 6 3 4 1 358 355 352 350 347 344 343 345 341 337 320 332 334 324
117 107 100 109 110 97 74 57 44 23 16 21 26 17 9 4 5 2 357 356 353 350 348 347 345 342 341 335 338 340 332 325
115 123 108 101 101 88 76 58 36 21 27 39 23 13 5 12 7 1 2 356 354 352 350 347 344 344 339 329 338 336 333 322
115 112 112 100 85 89 73 55 35 31 29 27 22 14 10 13 7 5 3 358 358 353 350 346 343 341 330 340 343 336 330 325
103 100 103 102 90 84 73 58 38 36 27 24 23 16 20 15 9 8 4 360 356 352 351 348 343 344 341 350 342 334 328 320
118 110 108 103 99 84 77 58 43 38 29 29 27 20 21 15 13 8 4 1 357 358 356 352 354 351 357 352 345 337 334 328
125 119 113 102 102 87 81 65 53 41 34 33 30 23 21 17 12 9 7 5 4 2 359 4 4 357 6 358 352 346 342 338
125 117 108 101 94 90 84 75 58 45 39 36 30 25 21 18 15 12 11 8 6 5 6 6 1 354 356 358 357 352 348 344
116 114 118 114 102 95 88 75 59 50 43 40 32 28 24 19 17 15 13 11 8 7 6 1 359 357 356 358 358 354 347 344
119 123 120 115 100 95 82 70 63 52 49 42 34 33 27 23 20 18 16 13 8 4 2 1 359 358 358 357 355 348 343 342